Flag for U.S.A. Weather past 2 weeks in Sacramento, California, U.S.A.

Now
63 °F

Sunny.


Feels Like: 63 °F
Forecast: 56 / 91 °F
Wind: No wind

Location: Sacramento Executive Airport

Current Time: Aug 31, 2015 at 8:51:00 AM

Latest Report: Aug 31, 2015 at 7:53 AM


Visibility: 10 mi

Pressure: 29.91 "Hg

Humidity: 73%

Dew point: 54 °F

Location of SacramentoLocation

Historic Weather in Sacramento — Graph

°F

Sacramento temperature yesterday

Maximum temperature yesterday: 89 °F (at 3:53 PM)
Minimum temperature yesterday: 58 °F (at 5:53 AM)
Average temperature yesterday: 72 °F

Past Weeks' High & Low Weather Summary

 TemperatureHumidityPressure
High104 °F (Aug 16, 3:53 PM)90% (Aug 21, 6:53 AM)30.02 "Hg (Aug 21, 6:53 AM)
Low58 °F (Aug 22, 6:53 AM)7% (Aug 16, 5:53 PM)29.73 "Hg (Aug 17, 5:53 PM)
Average75 °F52%29.88 "Hg
* Reported Aug 16 7:53 AM — Aug 31 7:53 AM, Sacramento, Weather by CustomWeather, © 2015

Note: Actual official high and low records may vary slightly from our data, if they occured in-between our weather recording intervals... More about our weather records

Advertising

Sacramento weather history for previous 24 hours

 ConditionsComfort  
Time TempWeatherWind HumidityBarometerVisibility
7:53 AM
Mon, Aug 31
63 °FSunny.No wind73%29.91 "Hg10 mi
6:53 AM58 °FClear.No wind90%29.89 "Hg10 mi
5:53 AM59 °FClear.No wind87%29.88 "Hg10 mi
4:53 AM61 °FClear.3 mph83%29.88 "Hg10 mi
3:53 AM62 °FClear.No wind80%29.87 "Hg10 mi
2:53 AM63 °FClear.No wind78%29.88 "Hg10 mi
1:53 AM62 °FClear.3 mph80%29.88 "Hg10 mi
12:53 AM64 °FClear.No wind75%29.89 "Hg10 mi
11:53 PM
Sun, Aug 30
67 °FClear.No wind68%29.88 "Hg10 mi
10:53 PM69 °FClear.3 mph66%29.89 "Hg10 mi
9:53 PM71 °FClear.6 mph61%29.89 "Hg10 mi
8:53 PM74 °FClear.7 mph53%29.89 "Hg10 mi
7:53 PM78 °FSunny.9 mph46%29.88 "Hg10 mi
6:53 PM83 °FSunny.12 mph37%29.88 "Hg10 mi
5:53 PM88 °FSunny.9 mph22%29.89 "Hg10 mi
4:53 PM89 °FSunny.9 mph22%29.91 "Hg10 mi
3:53 PM89 °FSunny.7 mph21%29.93 "Hg10 mi
2:53 PM86 °FSunny.3 mph24%29.96 "Hg10 mi
1:53 PM86 °FSunny.9 mph25%29.97 "Hg10 mi
12:53 PM82 °FSunny.10 mph31%29.99 "Hg10 mi
11:53 AM79 °FSunny.10 mph36%30.01 "Hg10 mi
10:53 AM75 °FSunny.No wind43%30.02 "Hg10 mi
9:53 AM70 °FSunny.No wind61%30.02 "Hg10 mi
8:53 AM65 °FSunny.No wind76%30.01 "Hg10 mi
Weather by CustomWeather, © 2015

See weather overviewHow to use our weather pages